Location: Unspecified
(49.2170°N, 0.0000°E)
Time: 01:06:38
(UTC+00:00)

Explorer 7 - Pass Details

Date: 29 January 2021
Orbit: 484 x 677 km, 50.3° (Epoch: 06 March)

Event Time Altitude Azimuth Distance (km) Brightness Sun altitude
Exits shadow 06:33:05 15° 283° (WNW) 1,469 8.3 -10.3°
Maximum altitude 06:36:21 88° 13° (NNE) 535 6.7 -9.7°
Drops below altitude 10° 06:40:31 10° 102° (ESE) 1,831 11.2 -9.1°
Sets 06:42:50 0° 103° (ESE) 2,760 12.8 -8.7°
